2024-247J

Last updated on Tue Jan 21 2025 00:02:04 GMT+0000 (Coordinated Universal Time)

1 62385U 24247J 25020.49898805 .00030485 00000+0 13749-2 0 9998 2 62385 44.9958 198.9439 0003532 179.7865 180.3018 15.20549999 4710
UTC large
Height (km)
Speed (km/s)
/
Latitude / Longitude
Inclination (degrees)
Orbital Period (minutes)
Azimuth
Elevation
Range (km)
Doppler Factor

Next 0 passes for location: London (51.5072 / 0.1276)

Sorry there are no passes over London.